{"data":{"norad_id":67270,"intl_designator":"2025-313Y","name":"SITRO-TD-3","alt_names":[],"object_type":"PAYLOAD","status":"ACTIVE","operator":null,"country":"CIS","launch_date":"2025-12-28","launch_site_code":"VOSTO","launch_vehicle":null,"mission":null,"orbit_class":"UNKNOWN","rcs_meters":null,"size_class":null,"mass_kg":null,"dimensions":null,"purposes":[],"wikipedia_slug":null,"has_3d_model":false,"image_url":null,"decayed_at":null,"tle_current":{"epoch":"2026-05-25T04:32:07.679328Z","epoch_age_seconds":69242,"freshness":"FRESH","line1":"1 67270U 25313Y   26145.18897777  .00008935  00000+0  38195-3 0  9991","line2":"2 67270  97.3944 220.2396 0016144  87.0470 273.2614 15.22959854 22454","mean_motion":15.22959854,"eccentricity":0.0016144,"inclination_deg":97.3944,"raan_deg":220.2396,"arg_perigee_deg":87.047,"mean_anomaly_deg":273.2614,"bstar":0.00038195,"rev_number":2245,"period_min":94.55272220196,"perigee_km":485.81934800693,"apogee_km":508.01752700355,"semimajor_km":6875.0554375052,"source":"CELESTRAK","updated_at":"2026-05-25T13:38:06.850111Z"}}}